METEOR 2-11 DEB, 40703

Orbit data source: Space-Track

METEOR 2-11 DEB, 40703 is space debris in LEO originally from a launch on Thu, 05 Jul 1984 UTC launched from the Plesetsk Missile And Space Complex (PKMTR). Debris objects in space refer to the collection of defunct objects orbiting the Earth. Examples of debris include non-operational satellites, rocket bodies, and fragments generated from explosions, collisions, or faulty payload assembly.

Loading next visibility...
Identifier
40703, 1984-072E
Orbit
LEO
Last TLE update
5 days ago
Origin
Manufacturer
Unknown
Mission
Spacecraft
Bus & Motor
Unknown
Mass
Unknown
Launch date (UTC)
1984-07-05 (41 years ago)
Launch vehicle
Unknown
Launch site
Plesetsk Missile And Space Complex (PKMTR)
Object type
Payload
Rocket body
Debris
Shape & HBR
Unknown
Radar Cross Section
Small (<0.1 m²)

Expand to show TLE details & history

TLE from 5 days ago
0 METEOR 2-11 DEB
1 40703U 84072E   25124.33246578  .00001255  00000-0  91703-3 0  9993
2 40703  82.5106 341.6283 0002495  76.6288 283.5156 13.95288814512212
Epoch: 2025-05-04T07:58Z
Definitive object data (Epoch: 2025-05-04T07:58:45.043Z)
Latitude
-0.00005°
Longitude
-0.52127°
Altitude
912.647 km
Speed
7.396 km/s
True Right ascension
22h 46m 30s
True Declination
0° 00' 00"
Sunlit
Object was in daylight at TLE epoch
Visualization TLE readout
Latitude
4.54558°
Longitude
174.89007°
Altitude
913.257 km
Speed
7.395 km/s
Apparent Right ascension
07h 39m 28s
Apparent Declination
-31° 00' 36"
Sunlit
Object is in daylight
Visualization observer readout
Local Sidereal Time
13:59:35
Azimuth
247.887° W
Elevation
-22.844°
Doppler factor
1
Orbital elements
Apogee altitude
909.111 km
Perigee altitude
905.475 km
Semi-major axis
7,285.43 km
Eccentricity
0.0002495
Inclination
82.5106°
RAAN
341.6283°
Arg. of periapsis
76.6288°
True anomaly
283.4878°
Mean anomaly
283.5156°
Eccentric anomaly
283.5017°
Mean motion
3.49028 °/min
BSTAR
0.00091703
Orbital period
103.14 mins
Loading maneuver chart data...
Loading SW <> Apogee altitude chart data...
Loading historical data...
Loading historical data...
Loading historical data...
Loading historical data...
Loading historical data...
Loading historical data...
Loading historical data...

METEOR 2-11 DEB Visibility forecast

Observer location: undefined°, undefined°

Span
Click to sort rows by Start time (UTC) header in descending order
Start Az.
Max El. time (UTC)
Max El. Az.
Max El.
End time (UTC)
End Az.
9 mins2025-05-09 13:43:51.491Z143.292° SSE2025-05-09 13:47:51.491Z96.529° ESE26.211°2025-05-09 13:52:51.491Z31.853° NE
8 mins2025-05-09 15:28:51.491Z231.472° WSW2025-05-09 15:31:51.491Z276.827° WNW30.161°2025-05-09 15:36:51.491Z346.833° N
7 mins2025-05-10 00:32:51.491Z35.944° NE2025-05-10 00:35:51.491Z74.758° E20.25°2025-05-10 00:39:51.491Z118.802° SE
9 mins2025-05-10 02:15:51.491Z336.05° NNW2025-05-10 02:19:51.491Z269.467° W37.809°2025-05-10 02:24:51.491Z196.26° SSW
|